| time (UTC) | temp C | wind direction | speed KPH | gust KPH | rain 1hr cm | rain 24hr cm | rain mn cm | humidity % | barometer mb |
| 20260502180504 | 21 | 32 | 6.4 | 14.5 | 0.00 | 0.76 | 0.03 | 53 | 1021.7 |
| 20260502170504 | 20 | 13 | 4.8 | 14.5 | 0.00 | 0.81 | 0.03 | 58 | 1022.0 |
| 20260502164004 | 20 | 334 | 6.4 | 16.1 | 0.00 | 0.84 | 0.03 | 63 | 1022.2 |
| 20260502163504 | 20 | 334 | 6.4 | 16.1 | 0.00 | 0.86 | 0.03 | 64 | 1022.2 |
| 20260502163011 | 20 | 352 | 4.8 | 16.1 | 0.00 | 0.86 | 0.03 | 66 | 1022.2 |
| 20260502162503 | 19 | 16 | 4.8 | 14.5 | 0.00 | 0.86 | 0.03 | 68 | 1022.1 |
| 20260502162025 | 19 | 342 | 6.4 | 14.5 | 0.00 | 0.86 | 0.03 | 68 | 1022.2 |
| 20260502161503 | 19 | 333 | 4.8 | 14.5 | 0.00 | 0.86 | 0.03 | 69 | 1022.1 |
| 20260502161003 | 19 | 12 | 3.2 | 12.9 | 0.00 | 0.86 | 0.03 | 72 | 1022.1 |
| 20260502160525 | 18 | 26 | 3.2 | 12.9 | 0.00 | 0.89 | 0.03 | 71 | 1022.2 |
| 20260502152003 | 17 | 348 | 4.8 | 11.3 | 0.00 | 0.99 | 0.03 | 85 | 1022.1 |
| 20260502151503 | 17 | 3 | 4.8 | 9.7 | 0.00 | 1.02 | 0.03 | 87 | 1022.0 |
| 20260502151003 | 16 | 3 | 4.8 | 12.9 | 0.00 | 1.04 | 0.03 | 89 | 1022.0 |
| 20260502150503 | 16 | 336 | 4.8 | 16.1 | 0.00 | 1.07 | 0.03 | 91 | 1022.1 |
| 20260502130503 | 11 | 330 | 4.8 | 9.7 | 0.00 | 1.65 | 0.03 | 89 | 1021.0 |
| 20260502123503 | 10 | 327 | 0.0 | 3.2 | 0.00 | 1.73 | 0.03 | 90 | 1020.4 |
| 20260502123004 | 10 | 345 | 0.0 | 1.6 | 0.00 | 1.75 | 0.03 | 90 | 1020.3 |
| 20260502122503 | 9 | 345 | 0.0 | 1.6 | 0.00 | 1.78 | 0.03 | 90 | 1020.3 |
| 20260502122004 | 9 | 345 | 0.0 | 1.6 | 0.00 | 1.80 | 0.03 | 91 | 1020.1 |
| 20260502121503 | 9 | 0 | 0.0 | 0.0 | 0.00 | 1.83 | 0.03 | 91 | 1020.0 |
| 20260502121004 | 9 | 0 | 0.0 | 0.0 | 0.00 | 1.88 | 0.03 | 91 | 1020.0 |
| 20260502120506 | 9 | 0 | 0.0 | 0.0 | 0.00 | 1.91 | 0.03 | 91 | 1019.8 |
| 20260502115504 | 9 | 0 | 0.0 | 0.0 | 0.00 | 2.01 | 0.03 | 91 | 1019.7 |
| 20260502115003 | 9 | 0 | 0.0 | 0.0 | 0.00 | 2.03 | 0.03 | 91 | 1019.5 |
| 20260502114504 | 9 | 0 | 0.0 | 0.0 | 0.00 | 2.06 | 0.03 | 91 | 1019.5 |
| 20260502114024 | 9 | 0 | 0.0 | 0.0 | 0.00 | 2.08 | 0.03 | 91 | 1019.4 |
| 20260502113503 | 9 | 0 | 0.0 | 0.0 | 0.00 | 2.11 | 0.03 | 91 | 1019.4 |
| 20260502113004 | 9 | 0 | 0.0 | 0.0 | 0.03 | 2.11 | 0.03 | 91 | 1019.2 |
| 20260502112503 | 10 | 0 | 0.0 | 0.0 | 0.03 | 2.13 | 0.03 | 91 | 1019.3 |
| 20260502112004 | 10 | 0 | 0.0 | 0.0 | 0.03 | 2.16 | 0.03 | 91 | 1019.2 |
| 20260502111503 | 10 | 0 | 0.0 | 0.0 | 0.03 | 2.16 | 0.03 | 91 | 1019.2 |
| 20260502111003 | 10 | 0 | 0.0 | 0.0 | 0.03 | 2.16 | 0.03 | 91 | 1019.2 |
| 20260502110503 | 10 | 0 | 0.0 | 0.0 | 0.03 | 2.18 | 0.03 | 91 | 1019.2 |
| 20260502110025 | 10 | 0 | 0.0 | 0.0 | 0.03 | 2.18 | 0.03 | 91 | 1019.1 |
| 20260502105510 | 10 | 0 | 0.0 | 0.0 | 0.03 | 2.18 | 0.03 | 91 | 1019.1 |
| 20260502105003 | 10 | 0 | 0.0 | 0.0 | 0.03 | 2.21 | 0.03 | 91 | 1018.8 |
| 20260502104503 | 10 | 345 | 0.0 | 1.6 | 0.03 | 2.24 | 0.03 | 91 | 1018.7 |
| 20260502104003 | 10 | 345 | 0.0 | 1.6 | 0.03 | 2.24 | 0.03 | 91 | 1018.7 |
| 20260502103503 | 10 | 345 | 0.0 | 1.6 | 0.03 | 2.26 | 0.03 | 91 | 1018.7 |
| 20260502103003 | 10 | 0 | 0.0 | 0.0 | 0.00 | 2.24 | 0.00 | 91 | 1018.7 |
| 20260502102503 | 10 | 0 | 0.0 | 0.0 | 0.00 | 2.26 | 0.00 | 91 | 1018.6 |
| 20260502101503 | 10 | 0 | 0.0 | 0.0 | 0.00 | 2.29 | 0.00 | 91 | 1018.6 |
| 20260502101003 | 10 | 343 | 0.0 | 3.2 | 0.00 | 2.29 | 0.00 | 91 | 1018.6 |
| 20260502100504 | 10 | 322 | 0.0 | 3.2 | 0.00 | 2.31 | 0.00 | 91 | 1018.4 |
| 20260502091503 | 11 | 320 | 1.6 | 6.4 | 0.00 | 2.39 | 0.00 | 91 | 1018.2 |
| 20260502091003 | 11 | 320 | 3.2 | 6.4 | 0.00 | 2.39 | 0.00 | 91 | 1018.2 |
| 20260502090524 | 11 | 324 | 3.2 | 6.4 | 0.00 | 2.39 | 0.00 | 91 | 1018.1 |
| 20260502071524 | 11 | 341 | 1.6 | 4.8 | 0.00 | 2.39 | 0.00 | 91 | 1017.7 |
| 20260502071003 | 11 | 324 | 3.2 | 4.8 | 0.00 | 2.39 | 0.00 | 91 | 1017.8 |
| 20260502070503 | 11 | 313 | 3.2 | 4.8 | 0.00 | 2.39 | 0.00 | 92 | 1017.8 |
| 20260502070003 | 11 | 310 | 3.2 | 4.8 | 0.00 | 2.39 | 0.00 | 92 | 1017.8 |
| 20260502065524 | 11 | 317 | 1.6 | 4.8 | 0.00 | 2.39 | 0.00 | 91 | 1017.7 |
| 20260502065003 | 11 | 329 | 1.6 | 4.8 | 0.00 | 2.41 | 0.00 | 91 | 1017.6 |
| 20260502064503 | 11 | 326 | 1.6 | 4.8 | 0.00 | 2.41 | 0.00 | 91 | 1017.6 |
| 20260502064024 | 11 | 323 | 1.6 | 4.8 | 0.00 | 2.41 | 0.00 | 92 | 1017.6 |
| 20260502063503 | 11 | 324 | 1.6 | 4.8 | 0.00 | 2.41 | 0.00 | 92 | 1017.6 |
| 20260502063003 | 11 | 334 | 0.0 | 3.2 | 0.00 | 2.41 | 0.00 | 92 | 1017.4 |
| 20260502062503 | 11 | 326 | 1.6 | 3.2 | 0.00 | 2.41 | 0.00 | 92 | 1017.7 |
| 20260502062024 | 11 | 328 | 1.6 | 3.2 | 0.00 | 2.44 | 0.00 | 92 | 1017.7 |
| 20260502061503 | 11 | 336 | 0.0 | 3.2 | 0.00 | 2.44 | 0.00 | 92 | 1017.7 |
| 20260502061003 | 11 | 349 | 0.0 | 1.6 | 0.00 | 2.44 | 0.00 | 92 | 1017.6 |
| 20260502060524 | 11 | 349 | 0.0 | 3.2 | 0.00 | 2.44 | 0.00 | 92 | 1017.6 |
| 20260502060003 | 11 | 305 | 1.6 | 4.8 | 0.00 | 2.44 | 0.00 | 92 | 1017.5 |
| 20260502055503 | 11 | 300 | 1.6 | 4.8 | 0.00 | 2.46 | 0.00 | 92 | 1017.6 |
| 20260502055003 | 11 | 312 | 1.6 | 4.8 | 0.00 | 2.46 | 0.00 | 92 | 1017.7 |
| 20260502054503 | 11 | 309 | 1.6 | 4.8 | 0.00 | 2.46 | 0.00 | 92 | 1017.7 |
| 20260502054003 | 11 | 299 | 1.6 | 4.8 | 0.00 | 2.46 | 0.00 | 92 | 1017.8 |
| 20260502053524 | 11 | 291 | 1.6 | 3.2 | 0.00 | 2.46 | 0.00 | 92 | 1017.8 |
| 20260502053003 | 11 | 287 | 1.6 | 3.2 | 0.00 | 2.46 | 0.00 | 92 | 1017.8 |
| 20260502052503 | 11 | 286 | 1.6 | 3.2 | 0.00 | 2.46 | 0.00 | 92 | 1017.9 |
| 20260502052024 | 11 | 286 | 0.0 | 3.2 | 0.00 | 2.46 | 0.00 | 92 | 1018.1 |
| 20260502051503 | 11 | 286 | 0.0 | 3.2 | 0.00 | 2.46 | 0.00 | 92 | 1018.0 |
| 20260502051003 | 11 | 297 | 0.0 | 3.2 | 0.00 | 2.46 | 0.00 | 92 | 1018.0 |
| 20260502050503 | 11 | 327 | 1.6 | 3.2 | 0.00 | 2.46 | 0.00 | 92 | 1018.0 |
| 20260502050003 | 11 | 326 | 1.6 | 3.2 | 0.00 | 2.46 | 0.00 | 92 | 1017.9 |
| 20260502045503 | 11 | 310 | 0.0 | 3.2 | 0.00 | 2.46 | 2.46 | 92 | 1018.0 |
| 20260502044503 | 11 | 316 | 0.0 | 3.2 | 0.00 | 2.46 | 2.46 | 92 | 1018.1 |
| 20260502044003 | 11 | 312 | 1.6 | 4.8 | 0.00 | 2.46 | 2.46 | 93 | 1018.1 |
| 20260502043503 | 11 | 311 | 1.6 | 4.8 | 0.00 | 2.46 | 2.46 | 93 | 1018.2 |
| 20260502043004 | 11 | 300 | 1.6 | 4.8 | 0.00 | 2.49 | 2.46 | 93 | 1018.2 |
| 20260502042504 | 11 | 238 | 0.0 | 3.2 | 0.00 | 2.49 | 2.46 | 92 | 1018.0 |
| 20260502042004 | 11 | 299 | 1.6 | 4.8 | 0.00 | 2.49 | 2.46 | 93 | 1018.1 |
| 20260502041525 | 11 | 317 | 1.6 | 4.8 | 0.00 | 2.49 | 2.46 | 93 | 1018.1 |
| 20260502041004 | 11 | 322 | 3.2 | 8.0 | 0.00 | 2.49 | 2.46 | 93 | 1017.9 |
| 20260502040504 | 11 | 324 | 3.2 | 8.0 | 0.00 | 2.49 | 2.46 | 93 | 1017.9 |
| 20260502040025 | 11 | 325 | 1.6 | 6.4 | 0.00 | 2.49 | 2.46 | 93 | 1017.8 |
| 20260502035504 | 11 | 330 | 1.6 | 6.4 | 0.00 | 2.49 | 2.46 | 93 | 1017.8 |
| 20260502035004 | 11 | 325 | 3.2 | 6.4 | 0.00 | 2.49 | 2.46 | 93 | 1017.9 |
| 20260502034504 | 11 | 327 | 3.2 | 9.7 | 0.00 | 2.49 | 2.46 | 93 | 1017.8 |
| 20260502034004 | 11 | 325 | 4.8 | 9.7 | 0.00 | 2.49 | 2.46 | 93 | 1018.0 |
| 20260502033525 | 11 | 335 | 3.2 | 8.0 | 0.00 | 2.49 | 2.46 | 93 | 1018.0 |
| 20260502033004 | 11 | 20 | 1.6 | 6.4 | 0.00 | 2.49 | 2.46 | 93 | 1017.4 |
| 20260502032504 | 11 | 113 | 1.6 | 4.8 | 0.00 | 2.49 | 2.46 | 93 | 1017.2 |
| 20260502032004 | 11 | 146 | 1.6 | 4.8 | 0.00 | 2.51 | 2.46 | 93 | 1017.5 |
| 20260502031504 | 11 | 44 | 1.6 | 6.4 | 0.00 | 2.51 | 2.46 | 93 | 1017.5 |
| 20260502031028 | 11 | 357 | 1.6 | 6.4 | 0.00 | 2.51 | 2.46 | 93 | 1017.8 |
| 20260502030504 | 11 | 325 | 3.2 | 8.0 | 0.00 | 2.51 | 2.46 | 93 | 1017.9 |
| 20260502030004 | 11 | 325 | 3.2 | 8.0 | 0.00 | 2.51 | 2.46 | 93 | 1018.1 |
| 20260502025504 | 10 | 329 | 3.2 | 8.0 | 0.03 | 2.54 | 2.46 | 93 | 1018.2 |
| 20260502025004 | 10 | 334 | 4.8 | 8.0 | 0.03 | 2.57 | 2.46 | 93 | 1018.0 |
| 20260502024504 | 10 | 338 | 4.8 | 8.0 | 0.05 | 2.57 | 2.46 | 93 | 1017.8 |
| 20260502024004 | 11 | 325 | 3.2 | 8.0 | 0.05 | 2.57 | 2.46 | 93 | 1017.9 |
| 20260502023504 | 11 | 322 | 3.2 | 8.0 | 0.05 | 2.57 | 2.46 | 93 | 1017.6 |
| 20260502023004 | 11 | 344 | 3.2 | 9.7 | 0.05 | 2.57 | 2.46 | 93 | 1017.3 |
| 20260502022504 | 11 | 349 | 3.2 | 9.7 | 0.08 | 2.57 | 2.46 | 93 | 1017.1 |
| 20260502022025 | 11 | 12 | 3.2 | 8.0 | 0.10 | 2.57 | 2.46 | 93 | 1017.1 |
| 20260502021504 | 11 | 27 | 3.2 | 8.0 | 0.10 | 2.57 | 2.46 | 93 | 1017.1 |
| 20260502021004 | 11 | 40 | 3.2 | 11.3 | 0.10 | 2.57 | 2.46 | 93 | 1017.0 |
| 20260502020504 | 11 | 30 | 3.2 | 11.3 | 0.13 | 2.57 | 2.46 | 93 | 1016.9 |
| 20260502020004 | 11 | 5 | 3.2 | 8.0 | 0.13 | 2.57 | 2.46 | 93 | 1017.1 |
| 20260502015504 | 11 | 360 | 3.2 | 9.7 | 0.10 | 2.54 | 2.44 | 93 | 1017.3 |
| 20260502015004 | 11 | 350 | 4.8 | 12.9 | 0.13 | 2.54 | 2.44 | 93 | 1017.4 |
| 20260502014504 | 11 | 338 | 6.4 | 17.7 | 0.10 | 2.51 | 2.41 | 93 | 1017.4 |
| 20260502014025 | 11 | 335 | 6.4 | 17.7 | 0.13 | 2.51 | 2.41 | 93 | 1017.4 |
| 20260502013504 | 11 | 338 | 6.4 | 17.7 | 0.13 | 2.51 | 2.41 | 93 | 1017.1 |
| 20260502013004 | 11 | 335 | 6.4 | 17.7 | 0.13 | 2.51 | 2.41 | 93 | 1016.7 |
| 20260502012504 | 11 | 336 | 6.4 | 14.5 | 0.10 | 2.49 | 2.39 | 93 | 1016.5 |
| 20260502012004 | 11 | 336 | 4.8 | 9.7 | 0.08 | 2.46 | 2.36 | 93 | 1016.4 |
| 20260502011504 | 11 | 337 | 3.2 | 14.5 | 0.08 | 2.46 | 2.36 | 93 | 1016.3 |
| 20260502011025 | 11 | 340 | 3.2 | 14.5 | 0.08 | 2.46 | 2.36 | 93 | 1016.0 |
| 20260502010504 | 12 | 339 | 3.2 | 12.9 | 0.05 | 2.44 | 2.34 | 93 | 1016.1 |
| 20260502010025 | 12 | 332 | 3.2 | 14.5 | 0.05 | 2.44 | 2.34 | 93 | 1016.2 |
| 20260502005504 | 12 | 333 | 1.6 | 14.5 | 0.08 | 2.44 | 2.34 | 93 | 1016.2 |
| 20260502005004 | 12 | 358 | 1.6 | 4.8 | 0.05 | 2.41 | 2.31 | 93 | 1016.1 |
| 20260502004504 | 12 | 19 | 1.6 | 4.8 | 0.05 | 2.41 | 2.31 | 93 | 1015.7 |
| 20260502004004 | 12 | 359 | 1.6 | 9.7 | 0.03 | 2.39 | 2.29 | 93 | 1015.5 |
| 20260502003504 | 12 | 336 | 3.2 | 9.7 | 0.03 | 2.39 | 2.29 | 93 | 1015.5 |
| 20260502003004 | 12 | 342 | 3.2 | 6.4 | 0.05 | 2.39 | 2.29 | 93 | 1015.4 |
| 20260502002504 | 12 | 32 | 3.2 | 6.4 | 0.08 | 2.39 | 2.29 | 93 | 1014.9 |
| 20260502002004 | 12 | 40 | 3.2 | 6.4 | 0.10 | 2.39 | 2.29 | 93 | 1014.6 |
| 20260502001525 | 12 | 33 | 3.2 | 8.0 | 0.13 | 2.39 | 2.29 | 93 | 1014.5 |
| 20260502001004 | 12 | 38 | 3.2 | 8.0 | 0.15 | 2.39 | 2.29 | 93 | 1014.4 |
| 20260502000504 | 12 | 44 | 3.2 | 9.7 | 0.18 | 2.39 | 2.29 | 93 | 1014.3 |
| 20260502000025 | 12 | 39 | 3.2 | 9.7 | 0.20 | 2.39 | 2.29 | 93 | 1014.3 |
| 20260501235504 | 12 | 52 | 3.2 | 9.7 | 0.20 | 2.36 | 2.26 | 93 | 1014.2 |
| 20260501235005 | 12 | 47 | 4.8 | 9.7 | 0.23 | 2.36 | 2.26 | 93 | 1014.1 |
| 20260501234504 | 12 | 43 | 4.8 | 12.9 | 0.25 | 2.36 | 2.26 | 93 | 1014.1 |
| 20260501234004 | 12 | 48 | 4.8 | 12.9 | 0.25 | 2.36 | 2.26 | 93 | 1014.3 |
| 20260501233504 | 12 | 71 | 3.2 | 6.4 | 0.28 | 2.36 | 2.26 | 93 | 1014.1 |
| 20260501233004 | 12 | 76 | 1.6 | 6.4 | 0.25 | 2.34 | 2.24 | 93 | 1014.5 |
| 20260501232504 | 12 | 53 | 1.6 | 6.4 | 0.25 | 2.31 | 2.21 | 93 | 1015.1 |
| 20260501232004 | 12 | 48 | 3.2 | 9.7 | 0.23 | 2.29 | 2.18 | 93 | 1015.4 |
| 20260501231504 | 12 | 77 | 3.2 | 9.7 | 0.20 | 2.26 | 2.16 | 93 | 1015.3 |
| 20260501231004 | 12 | 85 | 1.6 | 4.8 | 0.18 | 2.24 | 2.13 | 93 | 1015.1 |
| 20260501230525 | 12 | 54 | 1.6 | 4.8 | 0.15 | 2.21 | 2.11 | 94 | 1015.2 |
| 20260501230025 | 12 | 47 | 1.6 | 4.8 | 0.15 | 2.18 | 2.08 | 94 | 1015.3 |
| 20260501225526 | 12 | 46 | 1.6 | 3.2 | 0.15 | 2.16 | 2.06 | 94 | 1015.3 |
| 20260501225004 | 12 | 59 | 1.6 | 4.8 | 0.13 | 2.13 | 2.03 | 94 | 1015.4 |
| 20260501224504 | 12 | 31 | 1.6 | 8.0 | 0.13 | 2.11 | 2.01 | 94 | 1015.1 |
| 20260501224004 | 12 | 34 | 3.2 | 8.0 | 0.13 | 2.11 | 2.01 | 94 | 1015.1 |
| 20260501223504 | 12 | 68 | 1.6 | 6.4 | 0.13 | 2.08 | 1.98 | 94 | 1015.1 |
| 20260501223004 | 12 | 75 | 1.6 | 4.8 | 0.15 | 2.08 | 1.98 | 94 | 1014.9 |
| 20260501222504 | 12 | 60 | 3.2 | 8.0 | 0.15 | 2.06 | 1.98 | 94 | 1014.9 |
| 20260501222004 | 12 | 51 | 1.6 | 8.0 | 0.18 | 2.06 | 1.96 | 94 | 1014.5 |
| 20260501221504 | 12 | 53 | 3.2 | 6.4 | 0.18 | 2.06 | 1.96 | 94 | 1014.3 |
| 20260501221004 | 12 | 68 | 3.2 | 6.4 | 0.20 | 2.06 | 1.96 | 94 | 1014.3 |
| 20260501220504 | 12 | 70 | 3.2 | 6.4 | 0.20 | 2.06 | 1.96 | 94 | 1014.3 |
| 20260501220004 | 12 | 59 | 3.2 | 11.3 | 0.18 | 2.03 | 1.93 | 94 | 1014.1 |
| 20260501215525 | 12 | 82 | 3.2 | 11.3 | 0.15 | 2.01 | 1.91 | 94 | 1014.1 |
| 20260501215004 | 12 | 103 | 3.2 | 9.7 | 0.15 | 2.01 | 1.91 | 94 | 1014.2 |
| 20260501214504 | 12 | 68 | 3.2 | 9.7 | 0.13 | 1.98 | 1.88 | 94 | 1014.2 |
| 20260501214004 | 12 | 11 | 3.2 | 9.7 | 0.13 | 1.98 | 1.88 | 94 | 1014.2 |
| 20260501213504 | 12 | 351 | 3.2 | 11.3 | 0.10 | 1.96 | 1.85 | 94 | 1014.5 |
| 20260501213025 | 12 | 359 | 3.2 | 12.9 | 0.10 | 1.93 | 1.85 | 94 | 1014.6 |
| 20260501212525 | 12 | 8 | 1.6 | 12.9 | 0.08 | 1.91 | 1.83 | 93 | 1014.7 |
| 20260501212004 | 12 | 344 | 1.6 | 8.0 | 0.05 | 1.88 | 1.78 | 93 | 1014.8 |
| 20260501211504 | 12 | 348 | 3.2 | 12.9 | 0.05 | 1.88 | 1.78 | 93 | 1014.5 |
| 20260501211007 | 12 | 355 | 3.2 | 12.9 | 0.03 | 1.85 | 1.75 | 93 | 1014.6 |
| 20260501210504 | 12 | 347 | 4.8 | 12.9 | 0.03 | 1.85 | 1.75 | 93 | 1014.4 |
| 20260501210004 | 12 | 336 | 4.8 | 12.9 | 0.03 | 1.85 | 1.75 | 93 | 1014.4 |
| 20260501205504 | 12 | 332 | 3.2 | 8.0 | 0.03 | 1.85 | 1.75 | 93 | 1014.5 |
| 20260501205004 | 12 | 358 | 3.2 | 14.5 | 0.03 | 1.85 | 1.75 | 93 | 1014.3 |
| 20260501204526 | 12 | 5 | 4.8 | 14.5 | 0.03 | 1.85 | 1.75 | 93 | 1014.2 |
| 20260501204004 | 12 | 6 | 4.8 | 16.1 | 0.03 | 1.85 | 1.75 | 94 | 1014.0 |
| 20260501203504 | 12 | 12 | 4.8 | 16.1 | 0.03 | 1.85 | 1.75 | 93 | 1013.5 |
| 20260501203004 | 12 | 355 | 3.2 | 12.9 | 0.00 | 1.83 | 1.73 | 93 | 1013.4 |
| 20260501202504 | 12 | 6 | 3.2 | 12.9 | 0.00 | 1.83 | 1.73 | 93 | 1013.5 |
| 20260501202025 | 12 | 43 | 3.2 | 9.7 | 0.00 | 1.83 | 1.73 | 93 | 1013.6 |
| 20260501201504 | 12 | 52 | 3.2 | 9.7 | 0.00 | 1.83 | 1.73 | 93 | 1013.4 |
| 20260501201004 | 12 | 51 | 3.2 | 11.3 | 0.00 | 1.83 | 1.73 | 93 | 1013.4 |
| 20260501200504 | 12 | 55 | 4.8 | 11.3 | 0.00 | 1.83 | 1.73 | 93 | 1013.1 |
| 20260501200004 | 12 | 51 | 4.8 | 11.3 | 0.00 | 1.83 | 1.73 | 93 | 1012.7 |
| 20260501195504 | 12 | 48 | 3.2 | 11.3 | 0.00 | 1.85 | 1.73 | 93 | 1012.6 |
| 20260501195004 | 12 | 74 | 3.2 | 11.3 | 0.00 | 1.85 | 1.73 | 93 | 1012.4 |
| 20260501194504 | 13 | 63 | 3.2 | 9.7 | 0.00 | 1.85 | 1.73 | 93 | 1012.4 |
| 20260501194004 | 13 | 42 | 4.8 | 12.9 | 0.00 | 1.88 | 1.73 | 93 | 1012.7 |
| 20260501193504 | 13 | 30 | 6.4 | 22.5 | 0.00 | 1.91 | 1.73 | 92 | 1012.7 |
| 20260501193004 | 13 | 44 | 6.4 | 22.5 | 0.00 | 1.91 | 1.73 | 92 | 1012.5 |
| 20260501192504 | 13 | 52 | 4.8 | 16.1 | 0.00 | 1.91 | 1.73 | 92 | 1012.1 |
| 20260501192004 | 13 | 46 | 4.8 | 20.9 | 0.00 | 1.91 | 1.73 | 92 | 1012.1 |
| 20260501191504 | 13 | 51 | 4.8 | 20.9 | 0.00 | 1.91 | 1.73 | 92 | 1012.0 |
| 20260501191004 | 13 | 49 | 4.8 | 20.9 | 0.00 | 1.91 | 1.73 | 92 | 1011.8 |
| 20260501190504 | 13 | 49 | 4.8 | 12.9 | 0.00 | 1.91 | 1.73 | 92 | 1011.9 |
| 20260501190025 | 13 | 55 | 4.8 | 12.9 | 0.00 | 1.91 | 1.73 | 92 | 1012.1 |
| 20260501185504 | 13 | 67 | 4.8 | 14.5 | 0.00 | 1.91 | 1.73 | 92 | 1012.7 |
| 20260501185025 | 13 | 61 | 3.2 | 14.5 | 0.03 | 1.91 | 1.73 | 92 | 1012.9 |
| 20260501184504 | 13 | 49 | 3.2 | 12.9 | 0.03 | 1.91 | 1.73 | 92 | 1013.3 |
| 20260501184004 | 13 | 61 | 3.2 | 12.9 | 0.03 | 1.93 | 1.73 | 92 | 1013.6 |
| 20260501183505 | 13 | 67 | 3.2 | 9.7 | 0.03 | 1.93 | 1.73 | 92 | 1013.6 |
| 20260501183025 | 13 | 48 | 3.2 | 8.0 | 0.03 | 1.96 | 1.73 | 91 | 1014.0 |
| 20260501182504 | 13 | 61 | 3.2 | 8.0 | 0.03 | 2.03 | 1.73 | 91 | 1014.2 |
| 20260501182004 | 13 | 76 | 3.2 | 12.9 | 0.03 | 2.16 | 1.73 | 91 | 1014.3 |
| 20260501181504 | 13 | 82 | 4.8 | 12.9 | 0.03 | 2.31 | 1.73 | 91 | 1014.5 |
| 20260501181004 | 13 | 78 | 3.2 | 12.9 | 0.03 | 2.36 | 1.73 | 91 | 1014.6 |